Overview Statistics Trail Chart Weather Telemetry Raw packets
 

This is the latest recevied weather packets stored in our database for station/object F1DKL-13. If no packets are shown the sender has not sent any weather packets the latest 10 day(s).

<< 5 6 7 8 9 10 11 >>
Time Temp. Humidity Pressure Rain* Wind** Luminosity Snow
1777995905 16.67° C 44% 1016.1 hPa 0 mm - - -
1777995605 17.22° C 42% 1016.1 hPa 0 mm - - -
1777995305 17.78° C 44% 1016.1 hPa 0 mm - - -
1777995005 18.33° C 44% 1016.1 hPa 0 mm - - -
1777994705 18.33° C 44% 1016.1 hPa 0 mm - - -
1777994430 17.78° C 40% 1016.1 hPa 0 mm - - -
1777994105 18.33° C 46% 1016.1 hPa 0 mm - - -
1777993805 18.33° C 47% 1017.2 hPa 0 mm - - -
1777993505 18.33° C 46% 1017.2 hPa 0 mm - - -
1777993205 18.89° C 45% 1017.2 hPa 0 mm - - -
1777992905 18.89° C 44% 1017.2 hPa 0 mm - - -
1777992605 18.89° C 43% 1017.2 hPa 0 mm - - -
1777992305 18.89° C 47% 1017.2 hPa 0 mm - - -
1777990805 18.89° C 46% 1017.2 hPa 0 mm - - -
1777990505 18.89° C 47% 1017.2 hPa 0 mm - - -
1777990205 18.89° C 47% 1018.3 hPa 0 mm - - -
1777989905 18.89° C 50% 1018.3 hPa 0 mm - - -
1777989605 18.89° C 47% 1018.3 hPa 0 mm - - -
1777989305 18.89° C 45% 1018.3 hPa 0 mm - - -
1777989005 20.56° C 44% 1018.3 hPa 0 mm - - -
1777988705 20.56° C 46% 1018.3 hPa 0 mm - - -
1777988405 20° C 51% 1018.3 hPa 0 mm - - -
1777988105 20° C 50% 1018.3 hPa 0 mm - - -
1777987832 20° C 50% 1018.3 hPa 0 mm - - -
1777987505 20.56° C 48% 1018.3 hPa 0 mm - - -

* Rain latest hour (hover to see other rain measurements)
** Current wind speed in m/s (hover to see current wind gust speed)